Regional Weather Roundup
Issued by NWS Little Rock, AR

Home | Current Version | Previous Version | Graphics & Text | Print | Product List | Glossary On
Versions: 1 2 3 4 5 6 7 8 9 10 11 12 13 14 15 16 17 18 19 20 21 22 23 24 25 26 27 28 29 30 31 32 33 34 35 36 37 38 39 40 41 42 43 44 45 46 47 48 49 50
144
ASUS44 KLZK 272005
RWRLZK

WEATHER ROUNDUP FOR ARKANSAS
NATIONAL WEATHER SERVICE LITTLE ROCK AR
300 PM CDT THU JUL 27 2017

NOTE: "FAIR" INDICATES FEW OR NO CLOUDS BELOW 12,000 FEET WITH NO
SIGNIFICANT WEATHER AND/OR OBSTRUCTIONS TO VISIBILITY.

ARZ001-003-010-029-272100-
NORTHWEST ARKANSAS

CITY           SKY/WX    TMP DP  RH WIND       PRES   REMARKS
FAYETTEVILLE   CLOUDY    87  75  67 S8        29.97F HX  96
FORT SMITH     PTSUNNY   92  74  55 SW7       29.93F HX 101
HARRISON       CLOUDY    83  75  77 CALM      29.99F HX  90
BENTONVILLE    CLOUDY    86  73  66 SW3       29.98S HX  93
ROGERS         CLOUDY    88  73  61 SW6       29.98F HX  95
SILOAM SPGS    CLOUDY    88  70  55 SW13      29.96S HX  92
HIGHFILL       CLOUDY    89  76  65 S7        29.97F HX 100
$$

ARZ004-005-016-272100-
NORTH CENTRAL ARKANSAS

CITY           SKY/WX    TMP DP  RH WIND       PRES   REMARKS
BATESVILLE     CLOUDY    88  75  66 CALM      29.95F HX  97
FLIPPIN        CLOUDY    82  72  69 NE3       29.95S HX  87
MTN HOME       CLOUDY    82  76  81 S5        29.97  HX  89
$$

ARZ040-041-272100-
WEST CENTRAL ARKANSAS

CITY           SKY/WX    TMP DP  RH WIND       PRES   REMARKS
MENA           CLOUDY    99  73  44 SW6       29.98F HX 109
MOUNT IDA      CLOUDY    94  66  39 VRB3      29.95F HX  97
$$

ARZ009-017-025-026-028-272100-
NORTHEAST ARKANSAS

CITY           SKY/WX    TMP DP  RH WIND       PRES   REMARKS
CORNING        LGT RAIN  86  77  74 NW6       29.94F HX  97
JONESBORO      PTSUNNY   91  77  63 W3        29.93F HX 104
WALNUT RIDGE   CLOUDY    88  73  62 CALM      29.94F HX  96
BLYTHEVILLE    LGT RAIN  77  74  90 S7        29.95R FOG
$$

ARZ022-023-033-042-044-272100-
CENTRAL ARKANSAS

CITY           SKY/WX    TMP DP  RH WIND       PRES   REMARKS
LITTLE ROCK    CLOUDY    93  75  55 S10       29.94F HX 104
N LITTLE ROCK    N/A     93  77  59 SW5       29.92F HX 106
JACKSONVILLE   CLOUDY    94  77  57 S6        29.93F HX 108
CONWAY           N/A     99  73  44 W8        29.91F HX 109
SEARCY         CLOUDY    92  78  63 SW5       29.95F HX 107
HOT SPRINGS    PTSUNNY   96  73  47 SW12      29.95F HX 105
RUSSELLVILLE   CLOUDY    94  74  52 VRB3      29.92F HX 104
CLINTON        FAIR      88  75  66 W5        29.95F HX  97
$$

ARZ036-272100-
EAST ARKANSAS

CITY           SKY/WX    TMP DP  RH WIND       PRES   REMARKS
WEST MEMPHIS   MOSUNNY   92  77  61 SW8       29.93F HX 105
$$

ARZ050-053-066-070-073-272100-
SOUTHWEST ARKANSAS

CITY           SKY/WX    TMP DP  RH WIND       PRES   REMARKS
ARKADELPHIA    FAIR      93  75  55 SW10      29.96F HX 104
CAMDEN         PTSUNNY   95  72  46 SW6       29.97F HX 103
TEXARKANA      PTSUNNY   92  73  53 S10       29.98F HX 100
EL DORADO      CLOUDY    95  72  47 VRB7      29.99F HX 103
DE QUEEN       MOSUNNY   93  77  59 SW8       29.94F HX 107
$$

ARZ056-057-069-272100-
SOUTHEAST ARKANSAS

CITY           SKY/WX    TMP DP  RH WIND       PRES   REMARKS
PINE BLUFF     CLOUDY    91  74  57 SW8       29.97F HX 100
STUTTGART      PTSUNNY   93  68  43 SW10      29.96F HX  97
MONTICELLO     MOSUNNY   94  74  52 SW8       29.98F HX 104

$$






USA.gov is the U.S. government's official web portal to all federal, state and local government web resources and services.